GFSWCAN_850_dewp_156.txt.gz
Dewpoint
-9 -6 -8 -11 -13 -12 -10 -8 -8 -8 -8 -8 -7 -7 -6 -5 -6 -8 -6 -5 -4 -4 -5 -6 -7 -7 -8 -7 -6 -6 -4 -3 -3 -1 0 0 -0 -1 -0 -0 1 1 2 2 2 3 2 -4 -4 -3 -3 -1 -1 -1
-9 -8 -9 -10 -11 -11 -8 -8 -8 -7 -6 -5 -5 -4 -4 -4 -4 -4 -4 -4 -4 -4 -5 -5 -8 -8 -8 -8 -7 -7 -6 -5 -4 -1 -3 -2 -0 -1 0 1 -2 1 -1 0 0 0 -2 -2 -2 -2 -2 -1 -2 -2
-9 -8 -10 -10 -9 -9 -8 -8 -7 -6 -6 -5 -4 -4 -3 -4 -4 -4 -4 -4 -4 -3 -3 -4 -3 -5 -6 -7 -8 -7 -6 -5 -5 -0 -1 -1 -1 -1 1 -0 -1 -3 -3 -0 0 -1 -1 -1 -2 -2 -2 -2 -2 -3
-8 -8 -8 -8 -8 -8 -7 -7 -5 -4 -3 -2 -2 -2 -2 -2 -2 -3 -3 -4 -4 -3 -3 -4 -5 -6 -5 -5 -6 -7 -7 -4 -1 -1 -0 -0 -1 -2 -0 -1 -2 -3 -2 -1 -0 -0 -1 -2 -2 -3 -4 -4 -4 -5
-8 -9 -11 -10 -7 -6 -5 -3 -3 -3 -3 -2 -2 -2 -2 -2 -2 -2 -3 -3 -4 -4 -4 -5 -6 -7 -8 -6 -5 -6 -5 -4 -2 -1 0 1 -0 1 -0 -1 0 -2 -2 -1 -1 -1 -1 -2 -3 -4 -3 -1 -4 -6
-11 -11 -8 -7 -5 -3 -3 -3 -3 -3 -2 -2 -2 -2 -1 -2 -2 -2 -3 -3 -3 -4 -4 -1 -4 -4 -7 -5 -5 -6 -5 -4 -4 -2 0 0 1 0 1 -1 -4 -4 -4 -3 -1 -2 -2 -2 -2 0 -0 -3 -6 -6
-10 -8 -6 -4 -3 -3 -3 -2 -2 -2 -2 -2 -1 -1 -1 -1 -2 -2 -3 -4 -3 -3 -3 -2 -1 -0 -3 -3 -2 -2 -2 -2 -2 -1 -1 -1 -0 1 0 0 -2 -1 -1 -2 -2 -2 -1 -1 -2 -1 -4 -5 -6 -6
-7 -6 -3 -3 -3 -3 -2 -2 -2 -2 -1 -1 -1 -0 -1 -1 -2 -2 -3 -5 -3 -3 -3 -2 -1 -0 -0 -1 -1 -0 -0 -0 -1 -1 -1 -1 0 0 -0 -1 -1 -0 -1 -1 -1 -2 -1 -1 -1 -4 -5 -6 -7 -8
-5 -3 -3 -3 -3 -3 -2 -2 -2 -2 -1 -2 -1 -1 -1 -1 -2 -2 -3 -2 -3 -2 -1 -3 -2 -2 -0 -1 -1 -1 -0 -0 -1 -1 -0 -0 -1 0 -1 -1 -0 -1 -1 -1 -2 -2 -1 -2 -4 -5 -6 -7 -8 -8
-3 -2 -2 -3 -3 -3 -2 -2 -2 -1 -1 -1 -1 -1 -1 -1 -2 -2 -2 -2 -1 -1 -1 -4 -1 -1 -1 -1 -2 -1 -1 -2 -2 -2 -1 -0 -1 -2 -1 -1 -1 -1 -1 -2 -2 -4 -4 -5 -5 -6 -6 -7 -8 -9
-2 -3 -3 -3 -3 -2 -2 -2 -2 -2 -2 -3 -2 -2 -2 -1 -2 -1 -1 -1 -1 -1 -1 -1 -2 -1 -1 -2 -1 -2 -2 -2 -1 -1 -1 -0 -0 -1 -1 -1 -1 -2 -2 -2 -2 -2 -3 -4 -5 -6 -7 -8 -8 -9
-3 -3 -3 -3 -3 -2 -2 -2 -2 -2 -2 -1 -2 -1 -1 -2 -3 -3 -1 -1 -2 -1 -2 -1 -1 -1 -1 -1 -1 -2 -0 -1 0 -1 -1 -0 -3 -1 -1 -1 -2 -2 -1 -1 -2 -3 -4 -5 -5 -7 -8 -8 -8 -9
-3 -3 -3 -4 -4 -2 -3 -3 -2 -2 -3 -4 -4 -5 -4 -4 -5 -4 -2 -1 -1 -2 -1 -1 -1 -2 -2 -2 -2 -2 -1 -1 -4 -3 -1 -3 -2 -2 -2 -3 -3 -3 -3 -3 -4 -4 -5 -5 -7 -8 -7 -8 -8 -10
-3 -3 -3 -4 -5 -4 -3 -4 -5 -6 -5 -8 -5 -4 -5 -4 -2 -2 -2 -2 -2 -2 -2 -3 -3 -2 -3 -3 -3 -2 -3 -4 -3 -2 -2 -3 -3 -2 -3 -3 -3 -4 -4 -4 -4 -5 -6 -7 -7 -7 -8 -8 -9 -13
-3 -3 -3 -5 -8 -7 -5 -5 -8 -9 -6 -4 -4 -1 -2 -2 -2 -2 -2 -2 -2 -3 -4 -3 -2 -4 -3 -3 -3 -4 -4 -4 -4 -4 -4 -3 -3 -3 -3 -4 -4 -5 -5 -5 -6 -6 -7 -7 -7 -8 -8 -10 -13 -14
-3 -3 -6 -9 -10 -8 -7 -8 -9 -6 -3 -3 -3 -2 -2 -2 -2 -2 -3 -3 -4 -5 -6 -5 -2 -2 -2 -3 -3 -4 -3 -5 -5 -5 -3 -4 -4 -4 -4 -5 -6 -6 -6 -7 -7 -7 -7 -8 -8 -9 -11 -13 -14 -16
-3 -5 -8 -7 -7 -8 -8 -7 -6 -5 -4 -4 -3 -3 -3 -3 -3 -3 -2 -3 -5 -7 -4 -4 -4 -3 -4 -2 -1 -2 -3 -3 -3 -4 -4 -4 -4 -4 -5 -6 -6 -6 -7 -7 -7 -7 -7 -8 -9 -12 -14 -14 -15 -17
-5 -6 -7 -9 -8 -8 -7 -7 -5 -4 -4 -4 -4 -4 -3 -4 -4 -4 -4 -4 -5 -5 -5 -4 -4 -2 -2 -2 -4 -3 -5 -6 -5 -5 -5 -5 -4 -5 -5 -5 -6 -6 -6 -7 -7 -7 -7 -8 -11 -13 -14 -15 -16 -16
-5 -6 -7 -8 -10 -9 -7 -7 -5 -4 -4 -4 -4 -4 -5 -4 -4 -4 -4 -4 -6 -4 -4 -4 -4 -3 -3 -3 -3 -4 -5 -6 -8 -7 -6 -6 -5 -5 -5 -5 -6 -6 -6 -6 -7 -7 -8 -10 -13 -14 -15 -17 -18 -17
-5 -6 -9 -9 -10 -10 -6 -6 -5 -4 -5 -6 -6 -6 -6 -6 -5 -6 -6 -7 -7 -6 -6 -5 -5 -5 -5 -4 -4 -4 -5 -6 -6 -7 -7 -6 -6 -6 -6 -6 -6 -7 -7 -8 -8 -9 -12 -13 -14 -15 -17 -18 -19 -19
-10 -10 -11 -11 -10 -8 -7 -7 -7 -7 -7 -6 -6 -7 -7 -7 -5 -5 -6 -6 -6 -4 -5 -6 -5 -5 -4 -4 -4 -4 -5 -5 -5 -5 -6 -6 -6 -6 -7 -7 -8 -8 -8 -9 -11 -13 -13 -14 -15 -17 -18 -18 -18 -18
-11 -12 -12 -9 -8 -7 -7 -7 -7 -7 -7 -6 -7 -7 -6 -7 -6 -5 -6 -6 -6 -6 -6 -6 -5 -5 -5 -5 -5 -4 -5 -5 -5 -5 -5 -5 -6 -7 -7 -7 -8 -8 -9 -11 -13 -13 -13 -14 -16 -18 -18 -18 -18 -18
-12 -13 -11 -10 -8 -6 -5 -5 -6 -6 -7 -7 -7 -7 -8 -8 -6 -6 -6 -6 -6 -6 -6 -6 -6 -6 -6 -6 -6 -5 -5 -5 -6 -5 -6 -6 -6 -7 -7 -7 -8 -8 -8 -10 -12 -13 -14 -14 -16 -17 -17 -17 -17 -16
-12 -10 -8 -7 -7 -8 -7 -6 -6 -5 -5 -7 -7 -7 -7 -6 -7 -7 -6 -6 -7 -6 -6 -7 -7 -6 -6 -6 -6 -6 -6 -6 -6 -6 -6 -6 -6 -6 -6 -7 -7 -7 -8 -10 -12 -13 -14 -15 -15 -14 -14 -16 -16 -15
-9 -7 -7 -10 -7 -9 -10 -11 -10 -7 -8 -9 -10 -10 -10 -7 -9 -8 -7 -8 -8 -8 -7 -8 -7 -7 -7 -7 -6 -6 -6 -6 -6 -6 -7 -7 -7 -7 -7 -7 -7 -8 -9 -11 -12 -13 -13 -14 -14 -12 -12 -13 -14 -13
-9 -6 -7 -7 -9 -10 -10 -9 -11 -10 -11 -10 -9 -8 -8 -12 -11 -8 -10 -10 -10 -9 -9 -8 -8 -8 -7 -7 -6 -6 -6 -6 -7 -6 -6 -7 -7 -7 -7 -7 -8 -9 -10 -10 -11 -13 -13 -12 -13 -12 -11 -11 -11 -11
-10 -9 -5 -5 -4 -6 -9 -7 -8 -11 -12 -10 -11 -12 -14 -14 -13 -12 -11 -11 -10 -10 -10 -9 -9 -9 -8 -7 -6 -6 -6 -6 -6 -6 -6 -6 -7 -8 -8 -8 -8 -9 -9 -9 -10 -11 -11 -11 -11 -11 -11 -12 -12 -12
-6 -6 -10 -7 -7 -8 -11 -13 -10 -9 -10 -7 -10 -14 -15 -15 -14 -13 -12 -11 -10 -10 -10 -10 -9 -9 -8 -8 -8 -7 -7 -7 -6 -7 -7 -6 -7 -8 -7 -7 -8 -8 -8 -9 -9 -10 -10 -10 -10 -10 -11 -11 -12 -11
-7 -6 -6 -11 -10 -10 -11 -12 -11 -8 -8 -9 -16 -17 -16 -16 -15 -13 -12 -11 -10 -10 -10 -10 -10 -10 -9 -9 -9 -9 -8 -8 -8 -8 -8 -7 -7 -7 -7 -8 -8 -8 -9 -9 -9 -9 -9 -9 -10 -10 -11 -11 -11 -11
-7 -7 -8 -12 -15 -13 -10 -9 -9 -9 -10 -11 -13 -15 -16 -16 -16 -14 -13 -12 -11 -11 -11 -11 -10 -10 -10 -10 -10 -10 -9 -9 -9 -9 -9 -9 -8 -8 -7 -7 -8 -8 -9 -9 -9 -9 -9 -9 -10 -10 -10 -11 -11 -12
-7 -7 -9 -10 -12 -9 -9 -9 -10 -10 -11 -13 -14 -15 -16 -16 -15 -15 -14 -13 -13 -12 -12 -11 -11 -11 -11 -11 -11 -10 -11 -10 -10 -10 -9 -9 -9 -9 -8 -8 -8 -8 -9 -9 -9 -9 -10 -10 -10 -11 -11 -11 -12 -13
-9 -8 -10 -12 -11 -9 -9 -8 -8 -10 -11 -12 -14 -14 -15 -15 -16 -16 -16 -15 -14 -13 -13 -12 -12 -12 -12 -12 -12 -12 -12 -11 -11 -11 -11 -10 -9 -9 -9 -9 -9 -9 -9 -9 -9 -9 -10 -10 -11 -11 -11 -12 -13 -13
-8 -9 -9 -10 -9 -9 -9 -8 -10 -11 -11 -12 -13 -14 -15 -16 -18 -17 -17 -17 -16 -15 -14 -14 -14 -13 -13 -13 -13 -13 -12 -12 -11 -11 -11 -10 -10 -10 -10 -10 -10 -10 -10 -10 -10 -11 -11 -11 -11 -12 -12 -12 -13 -13

GFSWCAN_850_dewp_159.txt.gz
Dewpoint
-8 -10 -11 -10 -9 -8 -8 -8 -7 -8 -9 -9 -9 -10 -10 -10 -10 -8 -6 -5 -4 -4 -5 -5 -6 -7 -7 -7 -6 -7 -7 -5 -4 -2 -3 -2 -1 -4 -4 -3 -4 -2 1 1 0 0 1 -4 -4 -2 -2 -1 -1 -1
-8 -9 -8 -6 -8 -11 -11 -12 -12 -10 -9 -10 -11 -11 -11 -10 -8 -6 -5 -6 -5 -4 -4 -5 -7 -7 -8 -10 -8 -8 -8 -5 -6 -3 -3 -4 -4 0 -1 -2 -1 -0 -2 -1 -0 -1 -1 -1 -0 -2 -3 -1 -2 -3
-10 -9 -9 -9 -10 -11 -11 -12 -11 -9 -9 -8 -8 -7 -6 -6 -6 -6 -4 -4 -4 -4 -4 -4 -5 -7 -8 -8 -8 -8 -8 -7 -7 -3 -2 -1 0 -2 1 -1 0 -1 -2 -0 -0 -1 -1 -1 -2 -2 -2 -2 -2 -3
-10 -10 -9 -9 -9 -9 -7 -8 -8 -7 -5 -5 -5 -5 -5 -4 -4 -4 -3 -4 -5 -4 -4 -6 -6 -5 -8 -5 -7 -8 -8 -7 -6 -3 -1 -1 -0 -2 -1 -2 -0 -0 -1 0 -1 -0 -1 -1 -2 -3 -2 -3 -4 -5
-11 -11 -9 -8 -9 -10 -9 -7 -7 -6 -5 -5 -4 -4 -3 -3 -3 -4 -4 -4 -3 -6 -3 -6 -8 -8 -8 -6 -7 -7 -6 -6 -6 -4 -2 -2 -0 1 -0 0 0 -2 -0 1 1 -1 -1 -2 -3 -3 -3 -4 -4 -5
-10 -9 -10 -11 -10 -7 -6 -5 -3 -3 -2 -2 -2 -2 -2 -2 -2 -2 -3 -4 -3 -5 -5 -2 -4 -4 -6 -6 -6 -5 -5 -5 -5 -2 -2 -2 -4 0 1 1 -2 -3 -3 -4 -1 -2 -2 -2 -3 -3 -4 -5 -6 -7
-10 -8 -9 -8 -7 -4 -3 -3 -3 -3 -3 -2 -2 -2 -2 -2 -2 -2 -3 -4 -3 -4 -4 -3 -3 -3 -2 -5 -4 -3 -4 -3 -4 -3 -3 -3 -1 -0 0 -0 -3 -5 -4 -2 -2 -2 -2 -2 -2 -1 -1 -5 -6 -7
-10 -9 -8 -5 -3 -3 -3 -3 -2 -2 -2 -2 -1 -1 -2 -2 -2 -2 -3 -3 -4 -3 -3 -3 -3 -1 -2 -2 -2 -3 -3 -3 -2 -1 -1 -1 -2 -1 -1 -3 -3 -2 -1 -1 -2 -2 -2 -2 -1 -3 -5 -6 -6 -7
-9 -6 -4 -3 -3 -3 -2 -2 -2 -2 -2 -1 -1 -1 -1 -2 -2 -2 -3 -3 -3 -4 -3 -2 -2 -0 -2 -1 -1 -2 -2 -1 -1 -1 -2 -2 -2 -1 -2 -3 -1 -0 -1 -1 -1 -1 -2 -1 -2 -4 -6 -6 -7 -8
-5 -3 -3 -3 -3 -2 -2 -2 -2 -2 -2 -2 -2 -2 -1 -2 -2 -2 -2 -2 -3 -2 -1 -2 -2 0 -2 -1 -1 -2 -2 -1 -1 -2 -1 1 -1 -3 -4 -3 -3 -1 -1 -1 -2 -4 -3 -3 -4 -5 -6 -7 -8 -9
-3 -2 -3 -3 -3 -2 -2 -2 -2 -1 -1 -2 -1 -2 -2 -2 -2 -2 -2 -1 -2 -1 -2 -2 -2 -1 -1 -1 -1 -3 -2 -2 -0 -1 -0 -1 -1 -1 -3 -3 -2 -1 -1 -2 -2 -2 -1 -2 -5 -6 -6 -7 -9 -9
-3 -3 -3 -3 -2 -2 -2 -2 -1 -1 -2 -2 -2 -2 -2 -2 -2 -2 -1 -1 -2 -1 -2 -1 -1 -2 -1 -1 -1 -1 -1 -1 -1 -2 -0 -1 -2 -1 -1 -1 -1 -1 -2 -1 -0 -1 -1 -3 -5 -6 -7 -8 -9 -9
-3 -3 -3 -3 -3 -2 -2 -2 -2 -1 -1 -2 -2 -2 -2 -4 -5 -4 -2 -1 -3 -3 -1 -1 -1 -2 -1 -1 -1 -1 -0 -1 -2 -1 -1 -2 -2 -2 -1 -1 -1 -1 -1 -1 -1 -1 -3 -4 -5 -6 -8 -8 -9 -9
-4 -3 -4 -4 -5 -3 -2 -2 -3 -3 -4 -4 -5 -3 -4 -4 -3 -3 -3 -2 -3 -2 -2 -2 -2 -1 -2 -2 -2 -1 -2 -3 -0 -1 -2 -3 -2 -2 -2 -1 -2 -2 -2 -0 -2 -3 -4 -5 -6 -7 -8 -8 -8 -11
-4 -3 -4 -7 -6 -3 -3 -3 -6 -6 -6 -3 -4 -1 -2 -2 -2 -2 -2 -2 -2 -2 -3 -2 -1 -3 -3 -2 -2 -2 -2 -1 -2 -3 -3 -3 -3 -3 -3 -2 -2 -2 -1 -2 -4 -4 -5 -6 -7 -8 -7 -8 -9 -12
-3 -4 -5 -6 -7 -4 -4 -6 -8 -5 -3 -3 -4 -2 -2 -2 -2 -2 -2 -2 -3 -4 -5 -5 -1 -1 -1 -3 -4 -3 -2 -3 -4 -3 -4 -4 -4 -3 -3 -3 -3 -2 -3 -3 -4 -5 -6 -7 -8 -7 -8 -9 -11 -13
-4 -4 -6 -7 -8 -8 -7 -7 -6 -5 -4 -4 -3 -4 -3 -3 -4 -3 -3 -3 -4 -6 -3 -3 -3 -3 -3 -2 -2 -2 -2 -3 -4 -4 -4 -4 -3 -3 -3 -4 -4 -4 -4 -5 -5 -7 -7 -7 -8 -8 -9 -12 -13 -14
-4 -6 -7 -8 -7 -8 -7 -6 -5 -4 -4 -4 -4 -5 -4 -4 -3 -2 -2 -3 -5 -5 -4 -3 -4 -3 -2 -2 -3 -3 -4 -6 -6 -6 -5 -5 -4 -4 -4 -5 -6 -6 -6 -7 -7 -7 -7 -8 -8 -9 -13 -14 -15 -16
-5 -6 -8 -8 -9 -8 -7 -5 -5 -4 -4 -4 -4 -4 -3 -4 -3 -2 -2 -3 -5 -5 -5 -5 -4 -4 -4 -4 -4 -4 -5 -6 -7 -7 -7 -6 -4 -5 -6 -6 -7 -7 -7 -7 -7 -7 -8 -8 -9 -12 -14 -15 -17 -18
-6 -8 -8 -9 -9 -6 -5 -5 -5 -4 -4 -4 -4 -4 -4 -4 -5 -6 -6 -7 -7 -7 -6 -5 -5 -5 -5 -5 -5 -5 -5 -6 -7 -8 -8 -7 -5 -5 -6 -6 -6 -7 -7 -7 -7 -7 -8 -9 -11 -13 -14 -16 -18 -19
-10 -10 -9 -10 -9 -8 -7 -7 -7 -7 -6 -6 -6 -7 -7 -7 -6 -6 -7 -7 -7 -5 -6 -6 -6 -5 -5 -5 -5 -5 -6 -7 -7 -7 -7 -7 -5 -5 -6 -6 -6 -6 -6 -7 -7 -8 -8 -10 -13 -14 -15 -16 -18 -18
-12 -12 -10 -10 -9 -7 -6 -7 -7 -7 -7 -7 -7 -7 -7 -7 -7 -6 -8 -7 -6 -6 -6 -6 -6 -5 -5 -5 -5 -5 -5 -5 -5 -5 -5 -5 -5 -5 -5 -6 -7 -7 -7 -8 -8 -9 -11 -13 -13 -15 -16 -17 -17 -17
-12 -12 -11 -9 -8 -7 -6 -6 -6 -6 -7 -7 -7 -7 -7 -8 -6 -7 -6 -6 -7 -7 -6 -6 -6 -6 -6 -5 -5 -6 -6 -5 -5 -5 -4 -4 -4 -5 -6 -7 -8 -8 -8 -9 -11 -12 -13 -13 -14 -16 -17 -17 -17 -17
-11 -9 -8 -7 -7 -8 -7 -6 -5 -6 -7 -7 -7 -7 -7 -7 -7 -8 -7 -7 -8 -7 -7 -6 -6 -6 -6 -6 -6 -6 -6 -6 -6 -6 -6 -6 -6 -7 -7 -7 -7 -8 -8 -9 -10 -12 -13 -14 -14 -16 -17 -17 -17 -17
-9 -7 -8 -9 -8 -9 -9 -10 -9 -7 -8 -9 -9 -9 -9 -8 -8 -8 -8 -9 -9 -8 -8 -7 -7 -7 -7 -6 -6 -6 -6 -6 -6 -7 -7 -7 -7 -7 -7 -7 -7 -7 -7 -8 -9 -12 -13 -14 -14 -15 -16 -15 -16 -17
-8 -6 -7 -7 -8 -9 -9 -9 -10 -9 -10 -7 -8 -9 -9 -10 -10 -9 -11 -10 -10 -10 -9 -9 -8 -7 -7 -7 -7 -6 -6 -6 -6 -6 -6 -7 -7 -7 -7 -7 -7 -7 -8 -8 -10 -12 -13 -13 -14 -14 -13 -12 -13 -15
-9 -7 -5 -6 -5 -7 -9 -9 -9 -10 -11 -9 -10 -12 -11 -11 -12 -12 -12 -11 -11 -10 -10 -9 -9 -9 -8 -7 -7 -7 -6 -6 -6 -6 -6 -6 -7 -8 -8 -8 -8 -8 -9 -9 -10 -10 -11 -13 -13 -13 -13 -11 -11 -12
-6 -7 -10 -8 -8 -9 -12 -9 -8 -9 -9 -9 -12 -15 -14 -14 -13 -14 -13 -12 -11 -11 -10 -10 -9 -9 -9 -9 -8 -8 -7 -7 -7 -7 -7 -7 -7 -7 -7 -8 -8 -8 -8 -8 -9 -9 -10 -11 -11 -10 -11 -11 -11 -11
-7 -7 -7 -11 -11 -11 -11 -12 -11 -9 -10 -11 -16 -16 -17 -17 -16 -14 -13 -12 -11 -11 -10 -10 -10 -10 -10 -9 -9 -9 -9 -8 -8 -8 -8 -8 -7 -7 -7 -7 -8 -8 -8 -9 -9 -9 -9 -9 -10 -10 -10 -11 -11 -11
-8 -8 -9 -13 -15 -13 -10 -10 -10 -11 -11 -13 -15 -16 -17 -17 -16 -15 -14 -13 -12 -11 -11 -11 -10 -10 -10 -10 -10 -10 -10 -10 -10 -10 -9 -9 -9 -8 -8 -8 -7 -8 -8 -9 -9 -9 -9 -9 -10 -10 -10 -10 -11 -11
-8 -8 -10 -11 -12 -10 -10 -10 -11 -11 -13 -15 -15 -16 -17 -16 -16 -15 -14 -13 -13 -12 -12 -12 -11 -11 -11 -11 -11 -11 -11 -11 -11 -11 -10 -10 -9 -9 -8 -8 -8 -8 -8 -9 -9 -9 -9 -9 -10 -10 -10 -10 -11 -11
-9 -9 -11 -12 -11 -10 -10 -10 -10 -11 -12 -14 -15 -15 -16 -16 -16 -16 -16 -15 -14 -14 -13 -12 -12 -12 -12 -12 -12 -12 -12 -12 -12 -11 -11 -11 -10 -9 -9 -9 -9 -9 -9 -9 -9 -9 -9 -10 -10 -10 -11 -11 -12 -12
-9 -9 -10 -10 -10 -9 -9 -9 -11 -12 -12 -13 -14 -15 -16 -16 -18 -17 -17 -16 -15 -15 -14 -14 -13 -13 -13 -13 -13 -13 -13 -12 -12 -12 -11 -11 -10 -10 -10 -10 -10 -10 -10 -10 -10 -10 -10 -10 -11 -11 -11 -12 -12 -13

GFSWCAN_850_dewp_165.txt.gz
Dewpoint
-9 -8 -11 -9 -7 -6 -6 -6 -6 -6 -5 -5 -5 -6 -6 -5 -4 -3 -3 -3 -3 -3 -4 -4 -5 -4 -4 -3 -5 -9 -6 -6 -4 -2 -4 -5 -6 -9 -9 -11 -8 -2 2 1 -1 -1 1 -9 -11 -7 -8 -8 -2 -2
-8 -8 -10 -8 -11 -10 -10 -10 -10 -6 -6 -6 -6 -7 -8 -9 -9 -9 -3 -5 -3 -3 -3 -3 -4 -6 -6 -8 -10 -11 -4 -10 -9 -6 -8 -10 -6 -6 -8 -7 -11 -4 -8 -6 -4 -1 -6 -5 -4 -2 -1 -1 -0 -1
-8 -10 -9 -9 -10 -9 -10 -10 -10 -8 -7 -7 -7 -8 -6 -6 -6 -7 -5 -4 -3 -4 -5 -6 -6 -6 -6 -6 -8 -9 -10 -9 -10 -8 -7 -5 -4 -9 -5 -7 -7 -7 -9 -2 -6 -8 -8 -6 -5 -2 -2 0 1 -0
-7 -10 -9 -8 -9 -9 -6 -7 -12 -13 -13 -13 -13 -13 -12 -10 -9 -10 -4 -4 -4 -5 -5 -8 -9 -7 -8 -7 -7 -6 -7 -9 -8 -10 -8 -5 -3 -6 -4 -7 -6 -6 -2 1 -3 -6 -9 -6 -3 -2 -0 0 1 -0
-8 -10 -10 -10 -11 -10 -8 -8 -10 -11 -11 -11 -11 -11 -12 -12 -12 -11 -7 -5 -4 -4 -4 -3 -5 -7 -7 -8 -7 -8 -8 -9 -8 -6 -5 -4 -7 -5 -5 -4 -1 -6 -2 -0 1 -7 -5 -5 -1 0 0 -0 -1 -2
-8 -10 -10 -11 -12 -11 -10 -10 -9 -8 -9 -10 -10 -10 -9 -8 -8 -5 -4 -5 -4 -4 -3 -4 -5 -5 -5 -6 -7 -6 -7 -7 -8 -7 -5 -5 -5 -2 -2 -4 -8 -8 -6 -4 -3 -5 -1 -1 0 -0 -0 -1 -2 -3
-9 -10 -9 -11 -11 -11 -11 -11 -10 -9 -6 -7 -6 -6 -5 -5 -4 -3 -3 -3 -6 -4 -3 -4 -5 -4 -5 -6 -6 -5 -5 -6 -5 -5 -4 -5 -6 -3 -2 -3 -8 -7 -2 -4 -2 -2 -1 -1 -1 -2 -1 -2 -3 -5
-10 -10 -9 -10 -10 -9 -8 -8 -7 -6 -5 -4 -3 -3 -3 -3 -4 -4 -5 -3 -3 -3 -3 -2 -4 -3 -5 -2 -3 -5 -3 -3 -4 -4 -6 -6 -8 -6 -3 -7 -9 -9 -7 -5 -4 -2 -1 0 -0 -1 -2 -3 -4 -5
-11 -10 -10 -9 -9 -8 -7 -5 -4 -3 -3 -3 -3 -3 -3 -3 -2 -3 -4 -4 -3 -3 -3 -4 -5 -3 -3 -2 -3 -4 -4 -2 -6 -3 -5 -6 -3 -3 -7 -8 -8 -8 -8 -7 -4 -1 1 -0 -1 -2 -3 -4 -5 -7
-9 -10 -9 -9 -7 -5 -3 -3 -3 -2 -2 -2 -2 -3 -3 -3 -2 -3 -3 -4 -4 -3 -2 -2 -8 -2 -2 -2 -3 -4 -4 -5 -4 -5 -7 -3 -3 -7 -8 -8 -8 -7 -8 -5 -1 0 -1 -1 -2 -2 -4 -4 -7 -7
-9 -9 -4 -3 -3 -3 -2 -2 -2 -2 -2 -2 -2 -2 -3 -2 -2 -3 -3 -2 -4 -2 -4 -6 -7 -4 -2 -0 -3 -6 -3 -5 -2 -4 -6 -5 -4 -5 -7 -7 -8 -7 -8 -5 -1 -1 -1 -1 -2 -3 -3 -6 -7 -8
-5 -3 -3 -2 -2 -2 -2 -2 -2 -2 -2 -2 -2 -2 -2 -2 -2 -1 -2 -4 -5 -5 -5 -4 -5 -6 -1 -1 -2 -5 -3 -3 -2 -3 -2 -3 -5 -8 -7 -7 -6 -6 -6 -5 -1 -1 -1 -1 -2 -3 -5 -7 -8 -8
-3 -3 -3 -3 -3 -2 -2 -2 -2 -1 -2 -2 -2 -2 -1 -1 0 -0 -2 -4 -3 -2 -3 -3 0 -1 -1 -0 -0 -1 -0 -1 -2 -0 -2 -5 -6 -2 -2 -2 -2 -4 -3 -1 -1 -1 -1 -2 -3 -4 -7 -8 -8 -9
-3 -3 -3 -3 -2 -2 -2 -2 -2 -2 -1 -1 -1 -0 0 -0 -2 -4 -6 -7 -5 -3 -4 -3 -2 -3 -2 -2 1 -0 -2 -1 -0 -1 -4 -2 -2 -2 -1 -1 -1 -1 -1 -1 -1 -1 -2 -3 -5 -6 -7 -8 -8 -9
-4 -4 -3 -3 -2 -2 -2 -2 -2 -1 -1 -1 -2 -0 -1 -2 -1 -0 -0 -2 -3 -3 -4 -2 -2 -3 -2 0 -2 -1 1 -0 -2 -2 1 -2 -3 -2 -2 -2 -1 -1 -1 -1 -2 -2 -3 -4 -5 -6 -7 -8 -9 -9
-4 -4 -4 -5 -3 -2 -2 -3 -2 -2 -2 -2 -2 -1 -2 -1 -1 -1 -1 -1 -2 -2 -4 -3 -3 -2 -1 -2 -1 -1 -1 -1 1 -1 -2 -3 -3 -3 -3 -3 -2 -2 -2 -3 -3 -4 -4 -4 -6 -7 -8 -8 -9 -10
-4 -3 -5 -6 -3 -3 -5 -2 -2 -2 -2 -2 -1 -2 -2 -1 -1 -2 -2 -1 -1 -1 2 1 0 -2 -1 -2 -2 -2 1 -1 -3 -4 -4 -4 -4 -4 -4 -4 -3 -3 -4 -4 -4 -5 -5 -6 -7 -7 -8 -9 -9 -10
-2 -3 -7 -7 -3 -3 -2 -2 -3 -4 -4 -3 -2 -2 -3 -3 -2 -2 -2 -1 -0 -1 -2 -1 -3 -2 0 0 1 -1 -3 -3 -3 -4 -4 -5 -5 -5 -5 -4 -4 -4 -4 -5 -6 -6 -5 -6 -7 -8 -8 -8 -9 -11
-4 -7 -7 -7 -6 -4 -2 -3 -3 -4 -3 -3 -2 -3 -3 -3 -3 -3 -2 -2 -2 -2 -2 -2 -1 -2 -2 -4 -3 -4 -3 -3 -4 -4 -6 -6 -6 -6 -5 -5 -5 -4 -4 -5 -5 -5 -6 -7 -6 -8 -8 -8 -9 -11
-4 -8 -7 -7 -7 -2 -4 -4 -3 -3 -3 -3 -3 -3 -3 -3 -3 -3 -3 -3 -3 -4 -5 -5 -4 -4 -4 -4 -4 -4 -5 -5 -5 -5 -6 -7 -6 -6 -6 -6 -5 -5 -5 -6 -6 -6 -7 -7 -7 -8 -8 -8 -9 -10
-7 -7 -8 -7 -6 -5 -5 -5 -5 -4 -3 -3 -3 -2 -3 -3 -3 -3 -4 -6 -5 -5 -5 -4 -4 -5 -5 -5 -5 -5 -5 -6 -5 -5 -5 -6 -7 -6 -6 -6 -6 -6 -6 -6 -7 -7 -7 -7 -8 -8 -9 -9 -9 -10
-7 -8 -8 -5 -3 -5 -5 -5 -5 -5 -4 -4 -5 -4 -2 -2 -3 -4 -6 -6 -6 -5 -5 -4 -5 -5 -5 -6 -6 -6 -6 -7 -7 -7 -6 -6 -6 -6 -6 -6 -6 -6 -6 -6 -6 -7 -7 -7 -8 -9 -10 -10 -11 -10
-9 -7 -9 -7 -6 -5 -5 -4 -5 -6 -4 -5 -6 -5 -4 -4 -5 -7 -6 -7 -6 -6 -6 -5 -6 -6 -5 -6 -6 -6 -6 -6 -6 -6 -6 -6 -6 -6 -6 -6 -6 -6 -6 -6 -7 -7 -7 -7 -8 -9 -11 -12 -12 -11
-6 -10 -9 -5 -5 -4 -5 -4 -6 -7 -7 -7 -6 -5 -5 -6 -7 -7 -6 -7 -6 -6 -6 -6 -5 -5 -5 -5 -6 -6 -6 -6 -6 -6 -6 -6 -6 -5 -5 -6 -6 -6 -6 -7 -7 -7 -7 -8 -8 -10 -12 -13 -11 -11
-6 -6 -4 -5 -6 -4 -4 -4 -4 -6 -4 -6 -5 -4 -4 -6 -5 -6 -6 -7 -7 -7 -7 -6 -6 -6 -5 -5 -6 -6 -6 -6 -6 -6 -6 -6 -6 -6 -7 -7 -7 -7 -8 -8 -8 -9 -9 -10 -11 -12 -13 -13 -11 -11
-5 -5 -5 -5 -5 -5 -5 -4 -4 -4 -5 -4 -4 -6 -5 -5 -5 -6 -8 -8 -7 -8 -8 -8 -7 -6 -6 -7 -6 -7 -6 -7 -6 -6 -6 -6 -6 -6 -6 -6 -7 -7 -7 -7 -8 -8 -9 -10 -12 -12 -12 -13 -12 -12
-6 -6 -6 -6 -6 -6 -5 -6 -7 -5 -4 -4 -4 -4 -4 -5 -6 -9 -10 -9 -9 -10 -10 -10 -9 -8 -8 -8 -8 -7 -7 -7 -7 -7 -7 -7 -7 -7 -7 -7 -7 -7 -7 -7 -7 -7 -7 -8 -10 -11 -12 -12 -13 -14
-7 -7 -6 -6 -6 -6 -5 -6 -5 -5 -6 -8 -7 -5 -5 -6 -8 -10 -10 -12 -12 -11 -11 -10 -10 -10 -9 -9 -9 -8 -8 -8 -7 -7 -7 -7 -7 -7 -8 -8 -8 -8 -8 -8 -8 -9 -9 -9 -10 -11 -11 -11 -11 -13
-7 -7 -6 -7 -7 -7 -7 -7 -7 -8 -9 -8 -7 -9 -11 -13 -14 -13 -14 -13 -11 -11 -10 -10 -10 -10 -10 -9 -10 -9 -9 -9 -8 -7 -7 -8 -8 -8 -8 -8 -8 -8 -8 -9 -9 -9 -9 -9 -9 -9 -10 -11 -11 -11
-8 -7 -7 -8 -7 -7 -8 -9 -9 -11 -11 -11 -13 -14 -14 -14 -16 -15 -14 -13 -12 -12 -12 -12 -11 -11 -11 -10 -10 -10 -11 -11 -11 -10 -10 -9 -10 -9 -9 -8 -8 -8 -8 -8 -8 -9 -9 -9 -9 -10 -10 -11 -11 -11
-8 -7 -7 -8 -8 -9 -9 -11 -11 -11 -11 -11 -11 -11 -13 -14 -16 -16 -15 -14 -13 -13 -13 -12 -11 -11 -12 -11 -12 -11 -11 -11 -12 -12 -12 -11 -11 -10 -9 -9 -9 -9 -8 -8 -8 -9 -9 -9 -9 -10 -10 -10 -10 -11
-9 -8 -8 -8 -8 -9 -9 -8 -8 -9 -10 -10 -12 -13 -13 -12 -13 -15 -14 -14 -14 -14 -13 -13 -13 -12 -12 -12 -12 -12 -12 -12 -12 -12 -12 -11 -11 -10 -10 -10 -10 -10 -9 -9 -9 -9 -9 -10 -10 -10 -10 -10 -11 -11
-9 -9 -9 -8 -9 -9 -9 -8 -9 -10 -10 -11 -11 -12 -12 -11 -13 -15 -16 -15 -15 -15 -14 -13 -13 -13 -13 -13 -13 -13 -13 -13 -13 -12 -12 -12 -11 -11 -11 -11 -10 -10 -10 -10 -10 -10 -10 -10 -10 -10 -11 -11 -11 -12

GFSWCAN_850_dewp_168.txt.gz
Dewpoint
-8 -8 -8 -8 -11 -10 -7 -8 -7 -7 -6 -6 -5 -5 -4 -4 -3 -3 -3 -2 -2 -2 -3 -4 -6 -4 -4 -1 0 -4 -0 -3 -2 -2 -5 -6 -7 -9 -8 -9 -8 -6 -2 2 -0 -1 -1 -11 -11 -6 -4 -4 -3 -4
-5 -8 -9 -10 -10 -8 -6 -7 -7 -6 -6 -5 -5 -6 -7 -5 -5 -5 -3 -3 -3 -3 -2 -3 -3 -3 -5 -5 -4 -2 -1 -2 -6 -3 -6 -9 -7 -5 -6 -3 -9 -5 -7 -5 -2 2 -2 -4 -2 -4 -1 1 -1 0
-6 -6 -9 -10 -9 -11 -11 -10 -10 -9 -6 -6 -6 -7 -7 -8 -9 -10 -3 -3 -5 -3 -4 -5 -6 -7 -5 -5 -5 -5 -4 -5 -4 -5 -5 -5 -4 -8 -4 -6 -5 -8 -11 -5 -5 -6 -7 -7 -6 -8 -4 -1 -0 -0
-9 -8 -11 -10 -9 -10 -9 -9 -10 -10 -8 -7 -7 -7 -8 -7 -5 -7 -4 -3 -3 -4 -4 -7 -8 -8 -7 -7 -6 -5 -5 -7 -7 -7 -5 -3 -4 -9 -5 -6 -5 -5 -7 -4 -3 -4 -4 -3 -7 -3 -0 -1 1 1
-9 -8 -8 -10 -9 -9 -10 -7 -7 -10 -11 -12 -13 -13 -14 -13 -11 -8 -4 -4 -4 -4 -3 -3 -7 -8 -7 -8 -8 -8 -8 -7 -8 -5 -2 -2 -6 -5 -6 -5 -3 -6 -3 -1 -0 -4 -2 -1 0 1 1 0 -0 1
-5 -6 -9 -10 -9 -10 -11 -10 -9 -9 -10 -11 -12 -12 -11 -11 -11 -7 -5 -6 -7 -5 -3 -4 -4 -5 -6 -6 -8 -9 -8 -8 -7 -7 -5 -6 -7 -5 -3 -3 -7 -9 -9 -8 -5 -4 -1 -2 -1 0 -0 -1 -0 -0
-4 -5 -10 -10 -10 -12 -12 -11 -10 -9 -9 -9 -10 -10 -11 -10 -8 -5 -4 -3 -4 -3 -4 -4 -5 -6 -5 -5 -6 -7 -8 -7 -7 -5 -5 -5 -5 -4 -2 -2 -7 -9 -9 -9 -7 -4 -0 -1 -0 -0 -1 -0 -0 -1
-4 -7 -11 -10 -9 -10 -11 -11 -10 -10 -9 -7 -7 -7 -6 -6 -4 -4 -6 -3 -3 -3 -5 -4 -5 -3 -4 -2 -2 -5 -4 -4 -3 -4 -5 -5 -7 -6 -2 -8 -9 -9 -9 -8 -5 -1 -1 -1 -2 0 -1 -1 -1 -2
-6 -9 -11 -10 -9 -10 -9 -8 -7 -8 -7 -5 -4 -4 -4 -4 -4 -5 -6 -4 -3 -3 -2 -4 -6 -5 -3 -3 -3 -3 -4 -2 -5 -2 -4 -6 -4 -3 -8 -9 -9 -9 -9 -7 -7 -2 -0 0 0 -0 -1 -1 -3 -3
-10 -11 -11 -10 -9 -10 -10 -9 -6 -4 -3 -3 -3 -3 -3 -3 -3 -3 -3 -4 -4 -3 -4 -2 -6 -2 -2 -2 -1 -3 -4 -5 -4 -5 -8 -3 -4 -8 -9 -9 -8 -8 -8 -8 -8 -1 1 1 0 -1 -1 -2 -4 -4
-9 -9 -10 -10 -7 -4 -3 -3 -3 -2 -3 -3 -3 -3 -3 -3 -3 -3 -3 -3 -3 -3 -5 -6 -5 -2 -2 -2 -1 -5 -3 -5 -5 -6 -6 -6 -5 -5 -7 -8 -9 -8 -8 -8 -8 -4 -1 -0 -0 -1 -2 -3 -4 -5
-10 -9 -4 -3 -3 -2 -3 -2 -2 -2 -3 -2 -2 -2 -2 -2 -2 -1 -2 -4 -4 -6 -6 -3 -4 -5 -1 -2 0 -4 -4 -5 -4 -3 -3 -4 -3 -8 -7 -7 -6 -6 -6 -7 -7 -3 -0 -0 -0 -2 -2 -3 -4 -7
-5 -3 -3 -3 -3 -2 -2 -2 -2 -2 -2 -2 -2 -2 -2 -2 -0 -2 -2 -4 -3 -4 -4 -4 -2 -3 0 -2 -1 -1 -2 -1 -1 1 -1 -3 -3 -1 -1 -1 -1 -1 -2 -5 -6 -1 -1 -1 -1 -2 -3 -4 -6 -8
-3 -3 -3 -3 -3 -2 -2 -2 -2 -2 -2 -1 -2 -0 -0 -0 -2 -3 -4 -6 -6 -3 -3 -4 -2 -3 -3 -1 1 -1 -2 -1 -1 -1 -4 0 -2 -2 -1 -2 -1 -1 -0 -1 -1 -1 -1 -2 -1 -3 -3 -4 -7 -8
-3 -4 -3 -2 -3 -2 -2 -2 -2 -2 -1 -1 -0 -1 -1 -2 0 0 0 -4 -4 -3 -4 -2 -2 -3 -2 -0 -2 -2 0 -1 -2 -1 0 -2 -3 -3 -2 -2 -2 -1 -1 -1 -1 -1 -1 -2 -3 -3 -4 -7 -8 -9
-4 -4 -3 -4 -3 -2 -2 -2 -2 -1 -1 -1 -3 -1 -1 0 0 -1 0 0 -2 -2 -3 -3 -2 -1 -1 -2 -2 -2 -2 -1 1 -1 -2 -3 -3 -3 -3 -3 -2 -2 -1 -1 -1 -1 -2 -3 -3 -5 -7 -7 -8 -9
-4 -2 -4 -5 -3 -2 -2 -2 -2 -1 -1 -1 -1 -2 -2 -1 -0 -0 -0 -1 -1 -1 1 -1 -1 -2 -3 -3 -4 -4 0 -1 -2 -3 -4 -4 -4 -4 -4 -3 -3 -3 -3 -3 -3 -3 -3 -4 -4 -6 -7 -8 -9 -9
-2 -2 -6 -6 -3 -2 -2 -2 -2 -1 -2 -2 -1 -2 -2 -2 -1 -1 -1 -0 0 -0 -2 -1 -2 -1 -1 -1 1 -1 -1 -3 -2 -3 -4 -5 -5 -5 -4 -4 -4 -4 -4 -4 -4 -5 -5 -5 -6 -7 -8 -8 -9 -10
-3 -6 -7 -5 -3 -2 -2 -2 -2 -2 -2 -2 -2 -3 -3 -3 -2 -2 -1 -1 -1 -1 -2 -2 -1 -0 -1 -3 -3 -4 -4 -4 -4 -4 -5 -6 -6 -5 -5 -5 -5 -6 -5 -6 -6 -6 -6 -5 -7 -7 -9 -9 -9 -10
-4 -8 -7 -6 -5 -2 -2 -3 -2 -2 -1 -2 -2 -2 -2 -3 -3 -2 -2 -2 -2 -2 -3 -2 -3 -3 -3 -4 -4 -4 -5 -5 -5 -4 -5 -6 -6 -6 -6 -6 -6 -6 -6 -7 -7 -6 -6 -6 -6 -7 -8 -8 -8 -10
-4 -4 -7 -5 -4 -3 -4 -4 -4 -3 -2 -2 -3 -2 -2 -3 -2 -3 -3 -3 -4 -3 -4 -4 -4 -4 -5 -5 -5 -5 -6 -6 -5 -5 -4 -6 -6 -6 -6 -6 -6 -6 -6 -6 -6 -6 -6 -6 -7 -7 -8 -7 -8 -9
-3 -7 -4 -4 -2 -4 -4 -4 -4 -4 -2 -3 -3 -2 -2 -2 -2 -3 -5 -5 -5 -4 -4 -4 -5 -4 -5 -5 -5 -6 -6 -6 -7 -6 -6 -6 -6 -6 -6 -5 -5 -5 -5 -5 -6 -6 -6 -6 -7 -8 -8 -8 -8 -9
-7 -7 -4 -4 -3 -4 -4 -4 -5 -5 -3 -2 -3 -3 -2 -2 -4 -6 -5 -6 -5 -6 -6 -6 -6 -6 -6 -5 -6 -6 -5 -6 -6 -6 -5 -5 -5 -5 -5 -5 -5 -5 -5 -6 -6 -6 -6 -7 -7 -8 -8 -8 -9 -9
-5 -4 -8 -4 -4 -3 -4 -3 -6 -7 -7 -5 -5 -5 -4 -5 -6 -5 -5 -5 -5 -6 -6 -6 -4 -5 -5 -5 -6 -6 -5 -5 -6 -5 -5 -5 -5 -5 -5 -5 -5 -5 -5 -6 -6 -6 -6 -6 -7 -8 -8 -8 -9 -9
-4 -5 -4 -4 -5 -4 -3 -4 -4 -6 -4 -5 -5 -5 -4 -6 -5 -6 -6 -6 -6 -6 -6 -5 -5 -5 -5 -5 -6 -6 -6 -6 -5 -6 -6 -6 -6 -6 -6 -6 -6 -6 -7 -7 -6 -7 -7 -7 -8 -8 -8 -9 -9 -9
-4 -5 -5 -6 -5 -4 -5 -4 -4 -4 -5 -4 -4 -5 -5 -5 -5 -5 -7 -6 -6 -7 -7 -6 -6 -5 -7 -7 -7 -7 -7 -6 -6 -6 -6 -6 -6 -6 -6 -6 -6 -6 -7 -7 -7 -7 -7 -8 -8 -9 -9 -9 -10 -10
-5 -6 -6 -6 -6 -7 -5 -5 -6 -5 -4 -4 -4 -4 -4 -4 -4 -7 -7 -8 -8 -8 -8 -8 -8 -7 -8 -8 -8 -8 -7 -7 -7 -7 -6 -7 -7 -7 -7 -7 -7 -7 -8 -7 -7 -8 -8 -8 -9 -9 -9 -10 -10 -10
-7 -7 -5 -5 -6 -6 -6 -6 -5 -5 -5 -7 -6 -4 -4 -4 -6 -8 -9 -10 -10 -10 -10 -9 -9 -9 -9 -9 -9 -8 -7 -7 -7 -7 -7 -8 -8 -8 -8 -8 -8 -8 -8 -8 -8 -8 -8 -8 -9 -9 -9 -10 -10 -10
-6 -6 -6 -6 -7 -7 -7 -6 -5 -7 -8 -7 -5 -7 -9 -11 -12 -11 -12 -12 -11 -10 -10 -10 -10 -10 -10 -10 -9 -9 -9 -8 -7 -7 -7 -7 -7 -8 -9 -8 -8 -8 -8 -8 -8 -9 -9 -9 -9 -9 -9 -10 -10 -10
-7 -8 -6 -7 -7 -6 -7 -8 -7 -9 -9 -10 -11 -13 -12 -13 -14 -14 -13 -11 -11 -10 -11 -11 -10 -10 -10 -10 -10 -10 -11 -10 -10 -9 -9 -9 -10 -9 -9 -9 -9 -9 -8 -8 -8 -9 -9 -9 -9 -9 -10 -10 -10 -11
-9 -7 -7 -7 -6 -7 -8 -10 -10 -10 -10 -10 -10 -9 -11 -13 -14 -14 -13 -13 -12 -12 -11 -12 -11 -11 -11 -11 -10 -10 -11 -12 -12 -12 -12 -11 -10 -10 -10 -10 -9 -9 -9 -9 -9 -9 -9 -9 -10 -10 -10 -10 -10 -10
-9 -7 -7 -7 -6 -8 -9 -8 -8 -8 -9 -9 -10 -11 -12 -11 -12 -14 -14 -13 -13 -13 -12 -12 -12 -12 -11 -12 -12 -12 -12 -12 -12 -12 -12 -12 -11 -11 -11 -10 -10 -10 -9 -10 -9 -9 -9 -9 -10 -10 -10 -10 -10 -10
-10 -9 -9 -8 -7 -8 -8 -8 -8 -8 -9 -9 -10 -10 -10 -9 -11 -14 -15 -14 -14 -14 -14 -13 -13 -13 -12 -12 -12 -12 -12 -12 -13 -12 -12 -12 -12 -11 -11 -11 -11 -11 -10 -11 -11 -10 -10 -10 -10 -10 -10 -10 -11 -11

GFSWCAN_850_dewp_171.txt.gz
Dewpoint
-8 -7 -6 -7 -8 -10 -11 -11 -9 -9 -7 -8 -8 -7 -6 -5 -5 -4 -4 -3 -3 -2 -4 -2 -1 -1 -0 -1 0 -1 -2 -2 -3 -4 -3 -4 -3 -6 -6 -7 -7 -4 -1 1 1 1 -0 -4 -3 -2 -1 -2 -2 1
-8 -8 -8 -9 -9 -11 -10 -7 -7 -7 -7 -6 -5 -5 -4 -4 -4 -3 -3 -3 -3 -3 -3 -3 -4 -2 -4 -4 -2 -1 -0 -2 -3 -3 -4 -6 -3 -4 -5 -3 -8 -4 -6 -3 -3 -1 -2 -6 -4 -6 -4 -2 -4 -0
-9 -6 -7 -8 -9 -11 -9 -7 -8 -9 -7 -6 -5 -6 -7 -8 -8 -7 -2 -3 -2 -3 -5 -7 -8 -8 -6 -5 -5 -4 -3 -3 -4 -3 -2 -4 -4 -6 -4 -4 -5 -6 -8 -4 -5 -7 -5 -4 -5 -2 -2 -3 -2 -1
-9 -7 -6 -8 -11 -10 -10 -11 -10 -10 -8 -6 -6 -6 -6 -6 -6 -5 -5 -3 -3 -4 -4 -5 -6 -7 -7 -7 -7 -5 -4 -5 -4 -4 -2 -3 -3 -6 -5 -6 -5 -5 -5 -5 -4 -5 -5 -5 -5 -5 -4 0 1 1
-9 -10 -8 -9 -11 -9 -9 -9 -8 -10 -11 -10 -9 -8 -8 -9 -9 -8 -7 -5 -4 -3 -3 -4 -9 -11 -9 -8 -7 -7 -7 -6 -6 -5 -4 -3 -4 -5 -5 -5 -4 -6 -4 -3 -3 -5 -5 -5 -3 -1 -1 -0 0 1
-8 -9 -8 -8 -11 -8 -8 -10 -8 -6 -8 -10 -11 -12 -13 -13 -13 -11 -9 -11 -9 -4 -4 -5 -5 -7 -7 -8 -6 -7 -8 -8 -7 -6 -4 -5 -6 -5 -4 -4 -8 -8 -9 -8 -7 -9 -7 -4 -5 -1 -1 0 0 1
-6 -6 -6 -8 -11 -9 -9 -11 -11 -9 -9 -10 -10 -10 -9 -8 -7 -6 -6 -4 -3 -4 -4 -4 -5 -5 -6 -6 -5 -5 -6 -8 -7 -7 -5 -5 -5 -5 -5 -3 -7 -8 -9 -9 -9 -8 -5 -6 -2 1 1 -0 -0 -0
-4 -5 -5 -9 -11 -11 -11 -13 -12 -11 -10 -9 -10 -10 -9 -7 -7 -7 -7 -5 -4 -4 -5 -5 -5 -5 -5 -4 -3 -4 -5 -6 -5 -5 -5 -5 -6 -5 -3 -7 -7 -7 -7 -8 -9 -9 -5 -2 -1 1 -0 -0 0 -1
-4 -4 -6 -9 -11 -9 -8 -9 -10 -10 -10 -7 -5 -4 -4 -5 -4 -5 -6 -5 -5 -3 -3 -4 -3 -4 -3 -3 -2 -4 -4 -4 -5 -4 -4 -5 -4 -3 -5 -8 -9 -9 -9 -8 -5 -3 -2 -1 0 -0 -0 -0 -1 -2
-4 -6 -8 -10 -11 -11 -11 -10 -9 -8 -8 -5 -5 -4 -4 -5 -6 -4 -4 -4 -4 -3 -3 -4 -5 -4 -3 -3 -1 -1 -3 -3 -4 -4 -5 -4 -5 -8 -7 -8 -9 -8 -8 -6 -3 -2 -1 1 0 0 -1 -1 -2 -3
-9 -11 -11 -11 -11 -10 -10 -9 -7 -4 -4 -4 -3 -4 -2 -3 -3 -3 -3 -3 -4 -4 -3 -4 -6 -5 -5 -3 -2 -2 -3 -4 -3 -4 -4 -3 -3 -6 -8 -7 -8 -9 -10 -10 -10 -6 -3 -3 -0 0 -1 -2 -2 -3
-10 -9 -10 -9 -6 -4 -3 -2 -3 -3 -3 -3 -3 -3 -3 -2 -2 -2 -3 -3 -3 -4 -4 -4 -5 -6 -3 -2 -1 -2 -2 -3 -3 -3 -2 -2 -2 -2 -3 -5 -5 -4 -6 -7 -8 -9 -7 -3 -1 -1 -1 -2 -3 -3
-11 -9 -4 -3 -3 -3 -3 -3 -2 -2 -2 -3 -2 -2 -2 -2 -1 -2 -2 -2 -2 -4 -5 -4 -4 -3 -1 -1 -1 -0 -3 -2 -1 0 -1 -2 -1 -1 -1 -3 -3 -2 -1 -2 -4 -4 -5 -1 -1 -1 -2 -2 -3 -4
-5 -3 -3 -3 -3 -3 -2 -2 -2 -2 -2 -2 -2 -1 -2 -1 -2 -2 -3 -5 -6 -6 -4 -4 -2 -2 -1 -1 -1 -0 -2 -1 -2 -3 -2 -1 -3 -3 -2 -3 -3 -2 -1 -1 -3 -4 -1 -0 -1 -1 -2 -3 -4 -4
-3 -3 -3 -3 -3 -3 -2 -2 -2 -2 -2 -1 -1 -1 -2 -3 -3 -1 -2 -3 -6 -6 -6 -2 -3 -2 -1 -2 -2 -1 -0 -1 -2 -1 -0 -2 -3 -3 -3 -3 -3 -2 -2 -1 -1 -0 -1 -1 -1 -2 -2 -3 -4 -5
-3 -4 -3 -3 -3 -2 -2 -2 -2 -2 -2 -1 -1 -1 -2 -1 -0 -1 -2 -0 -3 -3 -4 -4 -2 -2 -1 -2 -1 -1 -1 -1 -0 -1 -2 -3 -4 -4 -4 -4 -3 -2 -1 -1 -1 -0 -1 -1 -2 -2 -3 -3 -5 -7
-3 -3 -3 -5 -3 -2 -2 -2 -2 -1 -1 -1 -1 -2 -2 -2 -1 -1 -1 -1 -1 -1 -1 -2 -2 -2 -3 -2 -1 -1 -1 -1 -2 -3 -4 -4 -5 -5 -5 -4 -4 -3 -3 -3 -2 -2 -2 -2 -3 -3 -4 -5 -7 -8
-3 -3 -5 -5 -3 -2 -2 -2 -1 -1 -2 -2 -2 -1 -2 -2 -2 -2 -1 -2 -1 -1 -2 -2 -2 -1 -2 -0 -1 -2 -2 -3 -3 -3 -4 -5 -5 -5 -5 -4 -4 -4 -4 -4 -3 -3 -3 -4 -4 -4 -6 -7 -8 -8
-2 -5 -7 -4 -2 -2 -2 -2 -2 -1 -2 -3 -3 -3 -4 -3 -2 -2 -1 -1 -0 -1 -2 -2 -2 -1 -2 -3 -3 -4 -5 -5 -5 -5 -5 -6 -6 -6 -5 -5 -5 -6 -5 -5 -5 -5 -5 -4 -4 -5 -6 -7 -8 -9
-5 -5 -6 -4 -3 -2 -2 -2 -2 -1 -2 -2 -3 -2 -3 -3 -3 -2 -2 -1 -1 -3 -3 -2 -3 -3 -3 -4 -5 -5 -5 -5 -6 -5 -4 -6 -6 -6 -6 -6 -6 -6 -6 -6 -6 -6 -6 -6 -5 -6 -7 -8 -9 -9
-4 -4 -7 -6 -5 -2 -2 -4 -2 -2 -3 -2 -3 -3 -3 -3 -2 -2 -3 -3 -4 -2 -4 -4 -4 -5 -5 -5 -5 -5 -6 -6 -5 -5 -5 -6 -6 -6 -6 -6 -6 -7 -7 -7 -7 -7 -6 -6 -5 -5 -8 -9 -9 -9
-3 -4 -4 -4 -2 -2 -4 -5 -3 -3 -2 -2 -2 -2 -2 -2 -2 -3 -3 -4 -4 -4 -4 -5 -4 -5 -6 -6 -6 -6 -5 -7 -7 -6 -6 -6 -6 -6 -6 -6 -6 -6 -6 -6 -6 -6 -6 -6 -6 -7 -8 -7 -8 -8
-5 -5 -4 -4 -3 -3 -3 -4 -4 -5 -3 -2 -2 -2 -2 -2 -4 -5 -5 -5 -5 -5 -5 -6 -6 -6 -6 -6 -6 -5 -5 -5 -5 -5 -5 -5 -6 -6 -6 -5 -5 -6 -6 -6 -6 -6 -6 -7 -7 -7 -7 -8 -8 -9
-6 -5 -5 -4 -3 -2 -5 -3 -3 -6 -5 -3 -2 -3 -3 -4 -6 -3 -4 -4 -5 -6 -6 -6 -6 -5 -5 -6 -6 -5 -5 -5 -5 -5 -5 -5 -5 -6 -6 -6 -6 -5 -6 -6 -6 -6 -6 -7 -7 -7 -8 -8 -9 -9
-5 -4 -6 -5 -5 -4 -4 -4 -5 -4 -6 -5 -5 -5 -4 -7 -4 -4 -5 -5 -6 -6 -7 -5 -4 -4 -5 -6 -7 -6 -5 -6 -6 -6 -6 -6 -6 -6 -6 -6 -6 -6 -6 -6 -6 -7 -7 -7 -8 -8 -8 -8 -9 -9
-6 -5 -5 -4 -4 -5 -4 -5 -5 -4 -5 -6 -6 -4 -6 -5 -6 -6 -5 -5 -5 -6 -6 -5 -5 -6 -6 -6 -7 -7 -6 -6 -6 -6 -6 -6 -6 -6 -6 -6 -6 -7 -7 -7 -7 -7 -7 -8 -8 -9 -9 -9 -9 -9
-6 -5 -6 -6 -6 -6 -6 -5 -6 -4 -5 -6 -5 -5 -5 -5 -7 -7 -7 -7 -7 -7 -7 -7 -6 -6 -7 -8 -7 -8 -7 -7 -7 -7 -7 -7 -7 -7 -7 -7 -7 -7 -8 -8 -7 -8 -8 -8 -9 -9 -9 -9 -9 -9
-7 -8 -6 -5 -6 -5 -5 -5 -6 -6 -5 -6 -6 -5 -6 -7 -8 -9 -9 -9 -8 -8 -8 -8 -8 -8 -8 -8 -8 -8 -8 -7 -7 -8 -8 -8 -8 -8 -8 -8 -8 -8 -8 -9 -9 -8 -8 -8 -8 -9 -9 -10 -10 -10
-5 -7 -8 -5 -7 -5 -5 -5 -4 -7 -8 -7 -6 -6 -10 -11 -11 -11 -11 -11 -10 -10 -10 -10 -10 -10 -10 -10 -9 -9 -8 -8 -8 -7 -7 -8 -8 -9 -9 -9 -9 -9 -9 -8 -8 -9 -9 -9 -9 -10 -10 -10 -10 -10
-7 -9 -7 -6 -8 -8 -6 -8 -7 -8 -9 -10 -10 -12 -12 -13 -14 -13 -12 -12 -10 -10 -9 -9 -10 -9 -9 -10 -10 -10 -9 -8 -8 -8 -8 -9 -9 -9 -10 -10 -9 -9 -9 -9 -9 -9 -9 -9 -9 -9 -10 -10 -10 -10
-10 -9 -7 -7 -7 -6 -7 -9 -10 -10 -10 -10 -9 -9 -11 -13 -14 -13 -12 -12 -11 -11 -10 -11 -10 -9 -9 -9 -10 -11 -11 -11 -11 -11 -11 -11 -11 -11 -11 -11 -10 -10 -9 -10 -9 -9 -10 -10 -10 -10 -10 -10 -10 -10
-10 -9 -7 -7 -7 -8 -9 -9 -9 -9 -9 -10 -10 -12 -12 -12 -12 -14 -14 -13 -12 -11 -11 -11 -11 -11 -11 -11 -11 -11 -11 -12 -12 -12 -12 -12 -12 -11 -11 -11 -11 -11 -10 -10 -10 -10 -10 -10 -10 -9 -10 -10 -10 -10
-14 -12 -10 -9 -9 -8 -9 -9 -7 -7 -8 -8 -9 -12 -12 -10 -12 -13 -14 -13 -12 -12 -12 -12 -13 -12 -12 -12 -12 -12 -12 -13 -13 -12 -12 -12 -12 -12 -11 -11 -11 -11 -11 -11 -11 -11 -11 -10 -10 -10 -10 -10 -10 -10